EW3989 Weather Reports


Display with metric or nautical units.
time (UTC)temp
F
wind
direction
speed
MPH
gust
MPH
rain 1hr
in
rain 24hr
in
rain mn
in
humidity
%
barometer
mb
20260502163518 57 225 1.0 3.0 0.00 0.00 0.00 34 1016.9
20260502162725 57 203 1.0 8.0 0.00 0.00 0.00 36 1017.0
20260502162020 56 180 1.0 4.0 0.00 0.00 0.00 35 1017.0
20260502161018 56 0.0 2.0 0.00 0.00 0.00 36 1017.3
20260502152040 54 0.0 1.0 0.00 0.00 0.00 42 1017.9
20260502151100 53 0.0 0.0 0.00 0.00 0.00 37 1017.9
20260502123037 37 0.0 0.0 0.00 0.00 0.00 85 1018.9
20260502122042 35 0.0 0.0 0.00 0.00 0.00 87 1018.7
20260502121019 33 0.0 0.0 0.00 0.00 0.00 90 1018.8
20260502115029 29 0.0 0.0 0.00 0.00 0.00 90 1018.4
20260502114149 29 0.0 0.0 0.00 0.00 0.00 90 1018.3
20260502113028 28 0.0 0.0 0.00 0.00 0.00 90 1018.2
20260502112051 28 0.0 0.0 0.00 0.00 0.00 90 1018.2
20260502111019 29 0.0 0.0 0.00 0.00 0.00 90 1018.2
20260502110020 29 0.0 0.0 0.00 0.00 0.00 90 1018.2
20260502105057 29 0.0 0.0 0.00 0.00 0.00 90 1018.3
20260502104019 29 0.0 0.0 0.00 0.00 0.00 90 1018.3
20260502103020 30 0.0 0.0 0.00 0.00 0.00 90 1018.5
20260502102045 30 0.0 0.0 0.00 0.00 0.00 90 1018.5
20260502101028 30 0.0 0.0 0.00 0.00 0.00 90 1018.4
20260502091037 30 0.0 0.0 0.00 0.00 0.00 89 1018.4
20260502071036 29 0.0 0.0 0.00 0.00 0.00 89 1018.4
20260502070019 29 0.0 0.0 0.00 0.00 0.00 89 1018.5
20260502065039 30 0.0 0.0 0.00 0.00 0.00 89 1018.5
20260502064019 30 0.0 0.0 0.00 0.00 0.00 89 1018.5
20260502063019 29 0.0 0.0 0.00 0.00 0.00 89 1018.6
20260502062019 29 0.0 0.0 0.00 0.00 0.00 89 1018.6
20260502061019 29 0.0 0.0 0.00 0.00 0.00 89 1018.6
20260502060020 29 0.0 0.0 0.00 0.00 0.00 89 1018.7
20260502055019 28 0.0 0.0 0.00 0.00 0.00 89 1018.5
20260502054040 28 0.0 0.0 0.00 0.00 0.00 89 1018.5
20260502053027 28 0.0 0.0 0.00 0.00 0.00 88 1018.5
20260502052019 28 0.0 0.0 0.00 0.00 0.00 88 1018.4
20260502051019 28 0.0 0.0 0.00 0.00 0.00 88 1018.4
20260502050028 28 0.0 0.0 0.00 0.00 0.00 87 1018.4
20260502045039 28 0.0 0.0 0.00 0.00 0.00 87 1018.3
20260502044028 28 0.0 0.0 0.00 0.00 0.00 87 1018.3
20260502043019 28 0.0 0.0 0.00 0.00 0.00 87 1018.2
20260502042048 28 0.0 0.0 0.00 0.00 0.00 87 1018.1
20260502041028 28 0.0 0.0 0.00 0.00 0.00 86 1018.1
20260502040027 29 0.0 0.0 0.00 0.00 0.00 85 1018.1
20260502035048 29 0.0 0.0 0.00 0.00 0.00 85 1018.3
20260502034119 29 0.0 0.0 0.00 0.00 0.00 84 1018.2
20260502033048 30 0.0 0.0 0.00 0.00 0.00 84 1018.2
20260502032039 30 0.0 0.0 0.00 0.00 0.00 83 1018.3
20260502031028 31 0.0 0.0 0.00 0.00 0.00 82 1018.3
20260502030036 31 0.0 0.0 0.00 0.00 0.00 80 1018.2
20260502025019 32 0.0 0.0 0.00 0.00 0.00 80 1018.2
20260502024019 32 0.0 0.0 0.00 0.00 0.00 79 1018.3
20260502023019 33 0.0 0.0 0.00 0.00 0.00 78 1018.3
20260502022019 34 0.0 0.0 0.00 0.00 0.00 76 1018.2
20260502021019 34 0.0 0.0 0.00 0.00 0.00 74 1018.2
20260502020019 35 0.0 0.0 0.00 0.00 0.00 73 1018.2
20260502015019 35 0.0 0.0 0.00 0.00 0.00 72 1018.0
20260502014019 35 0.0 0.0 0.00 0.00 0.00 71 1017.9
20260502013047 36 0.0 0.0 0.00 0.00 0.00 70 1017.7
20260502012018 36 0.0 0.0 0.00 0.00 0.00 68 1017.6
20260502011039 38 0.0 0.0 0.00 0.00 0.00 64 1017.6
20260502010019 38 0.0 0.0 0.00 0.00 0.00 62 1017.5
20260502005027 39 0.0 0.0 0.00 0.00 0.00 61 1017.4
20260502004057 41 0.0 0.0 0.00 0.00 0.00 57 1017.5
20260502003018 42 0.0 0.0 0.00 0.00 0.00 53 1017.3
20260502002056 43 0.0 0.0 0.00 0.00 0.00 49 1017.1
20260502001036 44 0.0 0.0 0.00 0.00 0.00 48 1017.2
20260502000018 45 0.0 0.0 0.00 0.00 0.00 46 1017.2
20260501235019 45 0.0 2.0 0.00 0.00 0.00 45 1017.1
20260501234019 46 90 1.0 3.0 0.00 0.00 0.00 44 1017.0
20260501233036 46 0.0 2.0 0.00 0.00 0.00 45 1017.0
20260501232019 45 0.0 2.0 0.00 0.00 0.00 45 1017.1
20260501231027 46 0.0 1.0 0.00 0.00 0.00 44 1017.1
20260501230019 46 0.0 2.0 0.00 0.00 0.00 44 1017.1
20260501225020 46 0.0 2.0 0.00 0.00 0.00 43 1017.2
20260501224044 46 0.0 3.0 0.00 0.00 0.00 45 1017.1
20260501223019 46 23 1.0 4.0 0.00 0.00 0.00 42 1017.2
20260501222019 46 0.0 1.0 0.00 0.00 0.00 46 1017.2
20260501221036 47 68 2.0 5.0 0.00 0.00 0.00 42 1017.2
20260501220018 48 68 1.0 5.0 0.00 0.00 0.00 43 1017.3
20260501215039 47 0.0 3.0 0.00 0.00 0.00 45 1017.1
20260501214027 46 0.0 4.0 0.00 0.00 0.00 43 1017.1
20260501213018 47 0.0 0.0 0.00 0.00 0.00 47 1017.3
20260501212018 46 0.0 4.0 0.00 0.00 0.00 48 1017.2
20260501211021 46 0.0 3.0 0.00 0.00 0.00 50 1017.2
20260501210018 45 0.0 2.0 0.00 0.00 0.00 49 1017.1
20260501205018 45 68 1.0 5.0 0.00 0.00 0.00 51 1017.2
20260501204028 46 0.0 2.0 0.00 0.00 0.00 50 1017.1
20260501203027 45 68 1.0 3.0 0.00 0.00 0.00 50 1017.2
20260501202020 46 0.0 1.0 0.00 0.00 0.00 52 1017.2
20260501201040 47 0.0 2.0 0.00 0.00 0.00 47 1017.3
20260501200104 47 68 1.0 5.0 0.00 0.00 0.00 49 1017.2
20260501195020 46 68 1.0 4.0 0.00 0.00 0.00 49 1017.1
20260501194018 46 0.0 3.0 0.00 0.00 0.00 51 1017.1
20260501193018 46 23 1.0 7.0 0.00 0.00 0.00 47 1017.1
20260501192049 46 0.0 4.0 0.00 0.00 0.00 46 1016.9
20260501191018 47 0.0 3.0 0.00 0.00 0.00 49 1017.1
20260501190020 45 45 1.0 4.0 0.00 0.00 0.00 51 1017.1
20260501185101 44 0.0 1.0 0.00 0.00 0.00 51 1017.0
20260501184018 44 0.0 2.0 0.00 0.00 0.00 49 1016.9
20260501183027 44 0.0 3.0 0.00 0.00 0.00 47 1016.8
20260501182018 44 0.0 4.0 0.00 0.00 0.00 50 1016.9
20260501181019 44 0.0 6.0 0.00 0.00 0.00 48 1016.9
20260501180020 44 0.0 1.0 0.00 0.00 0.00 50 1017.0
20260501175039 45 0.0 3.0 0.00 0.00 0.00 45 1017.1
20260501174035 45 0.0 0.0 0.00 0.00 0.00 46 1017.1
20260501173018 44 0.0 1.0 0.00 0.00 0.00 49 1017.1
20260501172207 44 0.0 2.0 0.00 0.00 0.00 45 1017.1